Location: Newark
(50.0306°N, 2.3272°E)
Time: 10:50:52
(UTC+00:00)

S-56A Canister/Altair - All Passes

Search period start: 10 December 2019 00:00
Search period end: 20 December 2019 00:00
Orbit: 633 x 2500 km, 38.9° (Epoch: 09 December)

Date Brightness Start Highest point End Pass type
(mag) Time Alt. Az. Time Alt. Az. Time Alt. Az.
10 Dec - 07:56:52 10° S 08:05:43 20° SE 08:15:05 10° E daylight
10 Dec - 09:56:40 10° SW 10:09:37 41° SSE 10:22:35 10° E daylight
10 Dec - 12:00:32 10° WSW 12:14:52 53° S 12:27:34 10° ESE daylight
10 Dec - 14:06:20 10° W 14:20:02 46° SSW 14:30:59 10° SE daylight
10 Dec - 16:13:47 10° W 16:23:39 24° SW 16:31:39 10° S visible
11 Dec - 07:25:02 10° SSE 07:32:41 17° SE 07:40:52 10° E daylight
11 Dec - 09:23:49 10° SSW 09:36:15 39° SSE 09:49:12 10° E daylight
11 Dec - 11:27:13 10° WSW 11:41:23 53° S 11:54:33 10° ESE daylight
11 Dec - 13:32:43 10° W 13:46:44 48° SSW 13:58:19 10° SE daylight
11 Dec - 15:39:47 10° W 15:50:43 28° SW 15:59:35 10° SSE daylight
12 Dec - 06:53:36 10° SSE 06:59:42 14° SE 07:06:15 10° E visible
12 Dec - 08:51:05 10° SSW 09:02:56 36° SSE 09:15:43 10° E daylight
12 Dec - 10:54:00 10° WSW 11:07:54 52° S 11:21:25 10° E daylight
12 Dec - 12:59:10 10° W 13:13:22 50° SSW 13:25:33 10° SE daylight
12 Dec - 15:05:52 10° W 15:17:42 31° SW 15:27:21 10° SSE daylight
13 Dec - 06:23:01 10° SE 06:26:49 12° SE 06:30:48 10° ESE visible
13 Dec - 08:18:29 10° SSW 08:29:40 33° SE 08:42:07 10° E daylight
13 Dec - 10:20:53 10° WSW 10:34:25 51° SSE 10:48:11 10° E daylight
13 Dec - 12:25:42 10° W 12:39:56 52° S 12:52:41 10° ESE daylight
13 Dec - 14:32:04 10° W 14:44:34 34° SSW 14:55:00 10° SSE daylight
13 Dec - 16:42:39 10° WSW 16:47:16 12° SW 16:51:29 10° SW visible
14 Dec - 07:46:03 10° SSW 07:56:29 30° SE 08:08:24 10° E daylight
14 Dec - 09:47:52 10° SW 10:00:57 49° SSE 10:14:52 10° E daylight
14 Dec - 11:52:19 10° WSW 12:06:28 53° S 12:19:43 10° ESE daylight
14 Dec - 13:58:21 10° W 14:11:23 38° SSW 14:22:31 10° SSE daylight
14 Dec - 16:07:31 10° W 16:14:26 16° SW 16:20:37 10° SSW daylight
15 Dec - 07:13:45 10° S 07:23:22 27° SE 07:34:34 10° E daylight
15 Dec - 09:14:57 10° SW 09:27:32 47° SSE 09:41:28 10° E daylight
15 Dec - 11:19:02 10° WSW 11:32:59 54° S 11:46:38 10° ESE daylight
15 Dec - 13:24:44 10° W 13:38:06 40° SSW 13:49:53 10° SE daylight
15 Dec - 15:32:58 10° W 15:41:32 19° SW 15:49:08 10° S daylight
16 Dec - 06:41:37 10° S 06:50:21 24° SE 07:00:34 10° E visible
16 Dec - 08:42:10 10° SW 08:54:09 45° SSE 09:07:58 10° E daylight
16 Dec - 10:45:51 10° WSW 10:59:28 54° S 11:13:28 10° ESE daylight
16 Dec - 12:51:12 10° W 13:04:46 43° SSW 13:17:09 10° SE daylight
16 Dec - 14:58:45 10° W 15:08:33 22° SW 15:17:17 10° S daylight
17 Dec - 06:09:42 10° S 06:17:23 20° SE 06:26:26 10° E visible
17 Dec - 08:09:29 10° SW 08:20:50 42° SSE 08:34:23 10° E daylight
17 Dec - 10:12:45 10° WSW 10:25:58 54° S 10:40:12 10° ESE daylight
17 Dec - 12:17:47 10° W 12:31:23 45° SSW 12:44:19 10° SE daylight
17 Dec - 14:24:44 10° W 14:35:30 25° SW 14:45:11 10° S daylight
18 Dec - 05:38:03 10° SSE 05:44:31 17° SE 05:52:02 10° E visible
18 Dec - 07:36:54 10° SW 07:47:35 39° SSE 08:00:42 10° E daylight
18 Dec - 09:39:45 10° WSW 09:52:29 53° S 10:06:50 10° ESE daylight
18 Dec - 11:44:26 10° W 11:57:57 47° SSW 12:11:21 10° SE daylight
18 Dec - 13:50:54 10° W 14:02:23 28° SW 14:12:54 10° S daylight
19 Dec - 05:06:50 10° SSE 05:11:44 14° SE 05:17:16 10° E visible
19 Dec - 07:04:26 10° SSW 07:14:26 36° SSE 07:26:58 10° E visible
19 Dec - 09:06:51 10° WSW 09:19:03 52° S 09:33:23 10° ESE daylight
19 Dec - 11:11:12 10° W 11:24:30 49° SSW 11:38:16 10° SE daylight
19 Dec - 13:17:13 10° W 13:29:10 31° SW 13:40:26 10° SSE daylight
